EW2318 Weather Reports


time (UTC)temp
C
wind
direction
speed
KPH
gust
KPH
rain 1hr
cm
rain 24hr
cm
rain mn
cm
humidity
%
barometer
mb
20260905170120 16 274 6.4 24.1 0.00 0.18 0.18 59 1020.7
20260905165545 16 269 9.7 27.4 0.00 0.18 0.18 58 1020.6
20260905165046 16 283 9.7 27.4 0.00 0.18 0.18 58 1020.4
20260905164605 16 263 12.9 25.7 0.00 0.18 0.18 58 1020.4
20260905164045 16 259 8.0 29.0 0.00 0.18 0.18 58 1020.4
20260905163544 16 265 12.9 29.0 0.00 0.18 0.18 57 1020.4
20260905163105 16 228 11.3 29.0 0.00 0.18 0.18 58 1020.4
20260905162546 16 261 14.5 27.4 0.00 0.18 0.18 58 1020.4
20260905162045 16 11 11.3 24.1 0.00 0.18 0.18 59 1020.4
20260905161600 16 249 8.0 20.9 0.00 0.18 0.18 59 1020.4
20260905161045 16 265 9.7 30.6 0.00 0.18 0.18 58 1020.2
20260905160544 17 267 11.3 30.6 0.00 0.18 0.18 58 1020.2
20260905160105 17 277 11.3 29.0 0.00 0.18 0.18 58 1020.2
20260905155548 17 278 14.5 29.0 0.00 0.18 0.18 57 1020.2
20260905155043 17 243 9.7 27.4 0.00 0.18 0.18 58 1020.0
20260905154609 17 297 11.3 27.4 0.00 0.18 0.18 58 1019.9
20260905154046 17 257 14.5 37.0 0.00 0.18 0.18 57 1019.8
20260905153545 18 288 12.9 37.0 0.00 0.18 0.18 57 1019.8
20260905153105 17 238 14.5 32.2 0.00 0.18 0.18 57 1019.8
20260905152546 17 260 12.9 32.2 0.00 0.18 0.18 59 1019.8
20260905152045 17 261 16.1 32.2 0.00 0.18 0.18 59 1019.8
20260905151606 17 300 14.5 25.7 0.00 0.18 0.18 60 1019.9
20260905151043 17 279 11.3 25.7 0.00 0.18 0.18 61 1019.8
20260905150544 16 277 11.3 20.9 0.00 0.18 0.18 61 1020.0
20260905150104 17 297 11.3 27.4 0.00 0.18 0.18 60 1019.9
20260905145544 17 261 6.4 27.4 0.00 0.18 0.18 60 1019.8
20260905145044 17 257 6.4 19.3 0.00 0.18 0.18 59 1019.7
20260905144602 17 265 8.0 24.1 0.00 0.18 0.18 58 1019.8
20260905144047 17 292 6.4 24.1 0.00 0.18 0.18 59 1019.7
20260905143545 17 262 8.0 22.5 0.00 0.18 0.18 58 1019.7
20260905143107 17 252 8.0 25.7 0.00 0.18 0.18 58 1019.7
20260905142547 17 266 12.9 25.7 0.00 0.18 0.18 57 1019.7
20260905142046 17 334 14.5 24.1 0.00 0.18 0.18 56 1019.8
20260905141630 17 241 6.4 24.1 0.00 0.18 0.18 56 1019.8
20260905141049 17 302 9.7 24.1 0.00 0.18 0.18 56 1019.8
20260905140544 17 257 9.7 22.5 0.00 0.18 0.18 56 1020.0
20260905140101 17 264 12.9 22.5 0.00 0.18 0.18 56 1019.9
20260905135545 17 261 8.0 20.9 0.00 0.18 0.18 55 1020.1
20260905135046 17 288 9.7 24.1 0.00 0.18 0.18 55 1020.1
20260905134603 18 270 8.0 29.0 0.00 0.18 0.18 55 1020.0
20260905134046 18 294 14.5 29.0 0.00 0.18 0.18 55 1020.1
20260905133545 18 259 9.7 30.6 0.00 0.18 0.18 54 1020.0
20260905133059 18 252 17.7 33.8 0.00 0.18 0.18 55 1020.1
20260905132543 18 265 17.7 33.8 0.00 0.18 0.18 55 1020.0
20260905132045 18 266 14.5 30.6 0.00 0.18 0.18 57 1020.0
20260905131629 18 254 19.3 30.6 0.00 0.18 0.18 57 1020.0
20260905131048 17 261 12.9 30.6 0.00 0.18 0.18 58 1019.9
20260905130545 17 265 16.1 30.6 0.00 0.18 0.18 59 1020.0
20260905130118 18 256 12.9 30.6 0.00 0.18 0.18 58 1020.1
20260905125545 18 264 14.5 30.6 0.00 0.18 0.18 57 1019.9
20260905125046 18 240 20.9 33.8 0.00 0.18 0.18 55 1020.0
20260905124606 18 205 17.7 33.8 0.00 0.18 0.18 55 1020.0
20260905124044 18 304 12.9 30.6 0.00 0.18 0.18 58 1019.9
20260905123546 18 290 12.9 29.0 0.00 0.18 0.18 58 1020.0
20260905123111 18 277 16.1 30.6 0.00 0.18 0.18 57 1020.1
20260905122546 18 264 12.9 30.6 0.00 0.18 0.18 57 1020.1
20260905122047 18 265 17.7 27.4 0.00 0.18 0.18 59 1020.1
20260905121603 17 283 11.3 27.4 0.00 0.18 0.18 63 1020.1
20260905121044 17 248 12.9 33.8 0.00 0.18 0.18 65 1020.0
20260905120547 17 263 16.1 33.8 0.00 0.18 0.18 65 1020.0
20260905115545 17 265 14.5 25.7 0.00 0.18 0.18 63 1020.0
20260905115046 17 278 11.3 30.6 0.00 0.18 0.18 64 1020.0
20260905114606 17 251 11.3 32.2 0.00 0.18 0.18 64 1020.0
20260905114044 17 259 17.7 32.2 0.00 0.18 0.18 61 1020.0
20260905113548 18 282 19.3 37.0 0.00 0.18 0.18 62 1020.0
20260905113113 17 245 17.7 37.0 0.00 0.18 0.18 64 1020.0
20260905112545 17 291 19.3 32.2 0.00 0.18 0.18 63 1020.0
20260905112046 17 254 17.7 30.6 0.00 0.18 0.18 64 1020.0
20260905111604 17 277 14.5 30.6 0.00 0.18 0.18 63 1020.0
20260905111044 17 290 17.7 30.6 0.00 0.18 0.18 63 1020.0
20260905110544 17 257 17.7 29.0 0.00 0.18 0.18 65 1020.1
20260905110104 17 246 12.9 32.2 0.00 0.18 0.18 67 1020.0
20260905105544 17 260 12.9 32.2 0.00 0.18 0.18 68 1020.0
20260905105044 17 289 19.3 33.8 0.00 0.18 0.18 67 1019.7
20260905104600 16 273 19.3 33.8 0.00 0.18 0.18 68 1019.8
20260905104047 16 236 16.1 33.8 0.00 0.18 0.18 67 1019.8
20260905103544 17 292 16.1 33.8 0.00 0.18 0.18 65 1019.8
20260905103058 17 272 14.5 29.0 0.00 0.18 0.18 66 1019.7
20260905102544 16 259 16.1 32.2 0.00 0.18 0.18 67 1019.7
20260905102044 16 232 14.5 32.2 0.00 0.18 0.18 68 1019.8
20260905101632 16 253 17.7 30.6 0.00 0.18 0.18 69 1019.8
20260905101047 16 254 12.9 29.0 0.00 0.18 0.18 70 1019.8
20260905100543 16 270 12.9 29.0 0.00 0.18 0.18 71 1019.9
20260905100107 16 290 14.5 29.0 0.00 0.18 0.18 71 1020.0
20260905095544 15 272 14.5 27.4 0.00 0.18 0.18 72 1020.0
20260905095045 15 288 12.9 27.4 0.00 0.18 0.18 71 1020.0
20260905094604 15 252 16.1 29.0 0.00 0.18 0.18 71 1020.1
20260905094047 15 244 16.1 29.0 0.00 0.18 0.18 72 1020.2
20260905093545 16 244 12.9 24.1 0.00 0.18 0.18 73 1020.2
20260905093104 16 261 12.9 27.4 0.00 0.18 0.18 73 1020.1
20260905092545 16 277 12.9 29.0 0.00 0.18 0.18 75 1020.1
20260905092044 16 265 16.1 29.0 0.00 0.18 0.18 74 1020.1
20260905091626 15 261 11.3 29.0 0.00 0.18 0.18 77 1020.1
20260905091048 15 290 14.5 29.0 0.00 0.18 0.18 77 1020.1
20260905090546 15 212 14.5 32.2 0.00 0.18 0.18 77 1020.0
20260905085545 15 285 11.3 25.7 0.00 0.18 0.18 78 1019.9
20260905085046 15 254 14.5 25.7 0.00 0.18 0.18 79 1020.0
20260905084617 15 283 11.3 25.7 0.00 0.18 0.18 80 1019.8
20260905084045 15 230 14.5 25.7 0.00 0.18 0.18 81 1020.0
20260905083546 14 242 11.3 25.7 0.00 0.18 0.18 82 1019.9
20260905083057 14 251 9.7 25.7 0.00 0.18 0.18 84 1019.8
20260905082546 13 316 12.9 25.7 0.00 0.18 0.18 83 1019.7
20260905082046 13 264 14.5 30.6 0.00 0.18 0.18 84 1019.7
20260905081600 13 251 12.9 30.6 0.00 0.18 0.18 86 1019.6
20260905081044 13 248 12.9 32.2 0.00 0.18 0.18 88 1019.5
20260905080545 13 320 11.3 32.2 0.00 0.18 0.18 88 1019.5
20260905080109 12 273 12.9 32.2 0.00 0.18 0.18 88 1019.4
20260905075547 12 273 8.0 24.1 0.00 0.18 0.18 88 1019.2
20260905075046 12 295 8.0 22.5 0.00 0.18 0.18 89 1019.3
20260905074601 12 304 11.3 22.5 0.00 0.18 0.18 90 1019.2
20260905074046 12 259 11.3 22.5 0.00 0.18 0.18 90 1019.3
20260905073549 12 277 6.4 19.3 0.00 0.18 0.18 90 1019.5
20260905073103 12 242 9.7 19.3 0.00 0.18 0.18 90 1019.4
20260905072549 12 250 9.7 19.3 0.00 0.18 0.18 90 1019.2
20260905072049 12 249 8.0 20.9 0.00 0.18 0.18 90 1019.3
20260905071605 12 248 9.7 20.9 0.00 0.18 0.18 90 1019.2
20260905071043 12 258 9.7 22.5 0.00 0.18 0.18 90 1019.3
20260905070545 12 279 9.7 22.5 0.00 0.18 0.18 90 1019.3
20260905070116 12 263 14.5 24.1 0.00 0.18 0.18 90 1019.1
20260905065547 12 288 12.9 24.1 0.00 0.18 0.18 90 1019.1
20260905065046 12 242 11.3 32.2 0.00 0.18 0.18 91 1018.9
20260905064557 12 270 12.9 32.2 0.00 0.18 0.18 91 1018.7
20260905064049 12 248 17.7 30.6 0.00 0.18 0.18 91 1018.6
20260905063545 12 283 11.3 25.7 0.00 0.18 0.18 91 1018.8
20260905063103 12 258 12.9 27.4 0.00 0.18 0.18 91 1018.9
20260905062545 12 304 14.5 29.0 0.00 0.18 0.18 92 1018.7
20260905062137 12 252 17.7 29.0 0.00 0.18 0.18 92 1018.9
20260905061617 12 267 16.1 25.7 0.03 0.18 0.18 92 1018.8
20260905061049 12 270 14.5 25.7 0.03 0.15 0.15 92 1018.7
20260905060545 12 252 8.0 17.7 0.08 0.15 0.15 92 1018.6
20260905060104 12 284 6.4 14.5 0.08 0.15 0.15 92 1018.5
20260905055544 12 279 8.0 12.9 0.10 0.15 0.15 92 1018.5
20260905055043 12 265 4.8 12.9 0.10 0.15 0.15 92 1018.2
20260905054604 12 265 4.8 11.3 0.13 0.15 0.15 91 1017.9
20260905054045 12 274 3.2 11.3 0.13 0.15 0.15 91 1017.7
20260905053543 12 296 3.2 12.9 0.13 0.15 0.15 91 1017.8
20260905053112 12 275 3.2 12.9 0.13 0.15 0.15 90 1017.9
20260905052542 12 260 6.4 16.1 0.15 0.15 0.15 90 1017.9
20260905052047 12 263 4.8 16.1 0.15 0.15 0.15 90 1018.1
20260905051601 12 267 8.0 16.1 0.13 0.13 0.13 89 1018.1
20260905051045 12 271 6.4 17.7 0.10 0.10 0.10 88 1018.0
20260905050550 12 295 9.7 17.7 0.08 0.08 0.08 87 1018.2
20260905050105 13 269 6.4 20.9 0.05 0.05 0.05 86 1018.3
20260905045543 13 270 8.0 20.9 0.03 0.03 0.03 86 1018.1
20260905045046 13 255 8.0 17.7 0.03 0.03 0.03 85 1018.3
20260905044602 13 254 8.0 17.7 0.00 0.00 0.00 84 1018.1
20260905044046 13 251 9.7 24.1 0.00 0.00 0.00 82 1017.7
20260905043543 13 276 11.3 24.1 0.00 0.00 0.00 81 1017.6
20260905043106 14 254 9.7 20.9 0.00 0.00 0.00 80 1017.5
20260905042549 14 258 8.0 19.3 0.00 0.00 0.00 79 1017.9
20260905042044 14 266 11.3 20.9 0.00 0.00 0.00 78 1018.3
20260905041604 14 300 9.7 20.9 0.00 0.00 0.00 78 1018.0
20260905041045 14 284 8.0 20.9 0.00 0.00 0.00 78 1017.9
20260905040543 15 261 9.7 17.7 0.00 0.00 0.00 77 1017.6
20260905040105 15 236 6.4 19.3 0.00 0.00 0.00 78 1017.5
20260905035542 15 257 9.7 19.3 0.00 0.00 0.00 78 1017.3
20260905035046 15 244 9.7 19.3 0.00 0.00 0.00 77 1017.2
20260905034605 15 267 9.7 17.7 0.00 0.00 0.00 78 1017.1
20260905034044 15 251 4.8 14.5 0.00 0.00 0.00 78 1017.2
20260905033543 15 276 4.8 16.1 0.00 0.00 0.00 77 1017.1
20260905033105 15 266 6.4 16.1 0.00 0.00 0.00 78 1017.1
20260905032543 15 269 4.8 17.7 0.00 0.00 0.00 78 1017.1
20260905032046 15 263 6.4 22.5 0.00 0.00 0.00 78 1017.1
20260905031601 15 246 9.7 22.5 0.00 0.00 0.00 77 1017.1
20260905031043 15 273 9.7 27.4 0.00 0.00 0.00 77 1017.2
20260905030543 15 257 11.3 27.4 0.00 0.00 0.00 76 1016.9
20260905030107 15 251 11.3 27.4 0.00 0.00 0.00 76 1016.9
20260905025545 16 265 8.0 17.7 0.00 0.00 0.00 76 1017.1
20260905025043 16 265 8.0 17.7 0.00 0.00 0.00 75 1017.0
20260905024640 16 265 6.4 20.9 0.00 0.00 0.00 75 1016.7
20260905024047 16 248 9.7 20.9 0.00 0.00 0.00 75 1016.6
20260905023546 16 261 9.7 19.3 0.00 0.00 0.00 74 1016.4
20260905023110 16 255 4.8 14.5 0.00 0.00 0.00 75 1016.3
20260905022545 16 246 4.8 17.7 0.00 0.00 0.00 75 1016.1
20260905022045 16 269 8.0 17.7 0.00 0.00 0.00 75 1016.3
20260905021605 16 231 6.4 14.5 0.00 0.00 0.00 75 1016.2
20260905021043 16 320 8.0 14.5 0.00 0.00 0.00 77 1016.3
20260905020547 16 232 1.6 11.3 0.00 0.00 0.00 79 1016.2
20260905015546 16 247 1.6 4.8 0.00 0.00 0.00 80 1016.6
20260905015042 16 273 0.0 8.0 0.00 0.00 0.00 80 1016.6
20260905014605 16 273 0.0 8.0 0.00 0.00 0.00 80 1016.5
20260905014043 16 352 1.6 12.9 0.00 0.00 0.00 81 1016.4
20260905013543 15 355 3.2 12.9 0.00 0.00 0.00 83 1016.3
20260905013117 15 284 3.2 9.7 0.00 0.00 0.00 84 1016.5
20260905012546 15 273 3.2 12.9 0.00 0.00 0.00 85 1016.5
20260905012043 15 296 3.2 12.9 0.00 0.00 0.00 84 1016.2
20260905011604 15 0 3.2 6.4 0.00 0.00 0.00 83 1016.2
20260905011048 15 269 3.2 6.4 0.00 0.00 0.00 82 1015.8
20260905010545 15 254 1.6 6.4 0.00 0.00 0.00 81 1015.8
20260905010106 16 0 0.0 6.4 0.00 0.00 0.00 81 1015.8
20260905005545 16 0 0.0 6.4 0.00 0.00 0.00 81 1015.7
20260905005043 16 80 0.0 4.8 0.00 0.00 0.00 80 1015.9
20260905004606 16 248 1.6 4.8 0.00 0.00 0.00 78 1016.2
20260905004043 16 226 0.0 4.8 0.00 0.00 0.00 78 1015.6
20260905003544 16 0 0.0 9.7 0.00 0.00 0.00 77 1015.5
20260905003103 16 84 0.0 9.7 0.00 0.00 0.00 77 1015.3
20260905002543 16 114 1.6 6.4 0.00 0.00 0.00 77 1015.1
20260905002045 16 0 0.0 11.3 0.00 0.00 0.00 77 1015.0
20260905001606 16 19 3.2 11.3 0.00 0.00 0.00 76 1015.0
20260905001046 16 0 4.8 12.9 0.00 0.00 0.00 76 1014.9
20260905000543 16 95 3.2 12.9 0.00 0.00 0.00 76 1014.8
20260905000110 16 360 1.6 9.7 0.00 0.00 0.00 76 1014.8
20260904235542 16 14 0.0 9.7 0.00 0.00 0.00 75 1014.7
20260904235043 17 71 0.0 12.9 0.00 0.00 0.00 75 1014.3
20260904234607 17 49 4.8 12.9 0.00 0.00 0.00 75 1014.5
20260904234045 17 92 3.2 11.3 0.00 0.00 0.00 75 1014.3
20260904233545 17 48 3.2 11.3 0.00 0.00 0.00 75 1014.3
20260904233103 17 58 3.2 11.3 0.00 0.00 0.00 75 1014.2
20260904232543 17 54 4.8 11.3 0.00 0.00 0.00 75 1014.3
20260904232043 17 92 3.2 8.0 0.00 0.00 0.00 75 1014.3
20260904231606 17 61 1.6 6.4 0.00 0.00 0.00 75 1014.2
20260904231048 17 0 1.6 6.4 0.00 0.00 0.00 76 1014.2
20260904230543 17 84 1.6 6.4 0.00 0.00 0.00 77 1014.2
20260904230104 17 113 1.6 4.8 0.00 0.00 0.00 77 1014.1
20260904225543 17 0 0.0 1.6 0.00 0.00 0.00 77 1014.1
20260904225042 17 0 0.0 3.2 0.00 0.00 0.00 77 1014.1
20260904224601 17 0 0.0 3.2 0.00 0.00 0.00 77 1014.2
20260904224043 17 0 0.0 3.2 0.00 0.00 0.00 76 1014.0
20260904223543 17 0 0.0 3.2 0.00 0.00 0.00 76 1014.0
20260904223112 17 240 0.0 3.2 0.00 0.00 0.00 76 1014.0
20260904222543 17 0 0.0 3.2 0.00 0.00 0.00 75 1013.9
20260904222042 17 0 0.0 4.8 0.00 0.00 0.00 75 1013.9
20260904221610 17 240 1.6 6.4 0.00 0.00 0.00 75 1013.8
20260904221043 17 240 1.6 6.4 0.00 0.00 0.00 75 1013.8
20260904220544 17 220 1.6 6.4 0.00 0.00 0.00 74 1013.7
20260904220105 17 255 3.2 4.8 0.00 0.00 0.00 74 1013.7
20260904215545 17 248 3.2 4.8 0.00 0.00 0.00 74 1013.6
20260904215044 17 261 3.2 4.8 0.00 0.00 0.00 73 1013.6
20260904214609 18 266 1.6 4.8 0.00 0.00 0.00 73 1013.6
20260904214043 18 271 1.6 4.8 0.00 0.00 0.00 72 1013.6
20260904213547 18 283 1.6 4.8 0.00 0.00 0.00 72 1013.5
20260904213104 18 283 3.2 4.8 0.00 0.00 0.00 72 1013.5
20260904212545 18 271 1.6 6.4 0.00 0.00 0.00 71 1013.4
20260904212044 18 271 1.6 6.4 0.00 0.00 0.00 71 1013.7
20260904211612 18 246 3.2 6.4 0.00 0.00 0.00 70 1013.7
20260904211043 18 245 3.2 6.4 0.00 0.00 0.00 70 1013.6
20260904210545 19 248 3.2 6.4 0.00 0.00 0.00 70 1013.6
20260904210059 19 286 3.2 9.7 0.00 0.00 0.00 69 1013.7
20260904205547 19 246 3.2 9.7 0.00 0.00 0.00 69 1013.7
20260904205046 19 287 3.2 9.7 0.00 0.00 0.00 69 1013.7
20260904204604 19 251 3.2 9.7 0.00 0.00 0.00 68 1013.8
20260904204048 19 259 4.8 9.7 0.00 0.00 0.00 68 1013.8
20260904203547 19 261 4.8 9.7 0.00 0.00 0.00 68 1013.7
20260904203106 19 251 4.8 9.7 0.00 0.00 0.00 68 1013.7
20260904202545 19 294 1.6 9.7 0.00 0.00 0.00 68 1013.6
20260904202045 19 266 3.2 9.7 0.00 0.00 0.00 68 1013.7
20260904201605 19 248 3.2 9.7 0.00 0.00 0.00 69 1013.7
20260904201046 19 279 3.2 8.0 0.00 0.00 0.00 69 1013.8
20260904200546 19 287 4.8 8.0 0.00 0.00 0.00 69 1013.8
20260904200111 19 244 1.6 6.4 0.00 0.00 0.00 69 1013.9
20260904195545 20 238 3.2 6.4 0.00 0.00 0.00 69 1013.9
20260904195047 20 285 3.2 6.4 0.00 0.00 0.00 68 1014.0
20260904194606 20 271 3.2 8.0 0.00 0.00 0.00 68 1014.1
20260904194047 20 237 3.2 8.0 0.00 0.00 0.00 67 1014.1
20260904193547 20 251 3.2 8.0 0.00 0.00 0.00 67 1014.0
20260904193105 20 250 3.2 6.4 0.00 0.00 0.00 66 1014.1
20260904192543 21 240 3.2 6.4 0.00 0.00 0.00 65 1014.1
20260904192050 21 259 1.6 6.4 0.00 0.00 0.00 64 1014.2
20260904191607 21 248 1.6 6.4 0.00 0.00 0.00 64 1014.1
20260904191048 21 299 3.2 8.0 0.00 0.00 0.00 63 1014.2
20260904190545 21 248 1.6 11.3 0.00 0.00 0.00 62 1014.3
20260904190106 22 271 4.8 11.3 0.00 0.00 0.00 62 1014.3
20260904185546 22 241 4.8 11.3 0.00 0.00 0.00 61 1014.3
20260904185046 22 250 6.4 11.3 0.00 0.00 0.00 61 1014.3
20260904184606 22 248 4.8 11.3 0.00 0.00 0.00 61 1014.3
20260904184047 22 271 6.4 16.1 0.00 0.00 0.00 61 1014.1
20260904183545 22 235 4.8 16.1 0.00 0.00 0.00 61 1014.3
20260904183105 22 254 9.7 16.1 0.00 0.00 0.00 61 1014.4
20260904182551 22 277 8.0 17.7 0.00 0.00 0.00 61 1014.4
20260904182046 22 248 6.4 17.7 0.00 0.00 0.00 62 1014.3
20260904181603 22 240 9.7 17.7 0.00 0.00 0.00 62 1014.2
20260904181047 21 250 6.4 12.9 0.00 0.00 0.00 63 1014.2
20260904180547 21 255 6.4 12.9 0.00 0.00 0.00 64 1014.3
20260904180112 21 267 6.4 14.5 0.00 0.00 0.00 64 1014.2
20260904175544 21 246 6.4 14.5 0.00 0.00 0.00 64 1014.2
20260904175043 21 263 6.4 12.9 0.00 0.00 0.00 63 1014.2
20260904174603 21 234 6.4 14.5 0.00 0.00 0.00 63 1014.1
20260904174042 21 263 6.4 14.5 0.00 0.00 0.00 63 1013.9
20260904173543 22 250 6.4 12.9 0.00 0.00 0.00 63 1013.8
20260904173102 22 259 6.4 12.9 0.00 0.00 0.00 62 1013.7
20260904172544 22 237 6.4 16.1 0.00 0.00 0.00 61 1013.7
20260904172043 22 281 6.4 16.1 0.00 0.00 0.00 61 1013.7
20260904171605 22 274 8.0 16.1 0.00 0.00 0.00 60 1013.7
20260904171043 22 288 6.4 17.7 0.00 0.00 0.00 60 1013.7
20260904170545 22 285 8.0 17.7 0.00 0.00 0.00 60 1013.8